[[{"header":{"parameterUnit":"m.s-1","parameterCategory":1,"la1":30.2991,"la2":30.254,"lo1":-89.0895,"lo2":-89.0444,"dy":0.0017,"dx":0.0017,"nx":28,"ny":28,"refTime":"2025-04-09T03:00:00:Z","depth":0,"parameterNumber":2,"parameterNumberName":"U-component_of_WINDS"},"data":[0,0,0,0,0,0,0,0,0,0,0,0,0,0,0,0,0,0,0,0,0,0,0,0,0,0,0,0,0,0,0,0,0,0,0,0,0,0,0,0,0,0,0,0,0,0,0,0,0,0,0,0,0,0,0,0,0,0,0.772,0.772,0,0.7774,0.7775,0.7775,0.7761,0.776,0.7759,0.7758,0.7818,0.782,0.7823,0,0,0,0,0,0,0,0,0,0,0,0,0,0.7608,0.761,0.772,0.7721,0.7721,0.7774,0.7775,0.7775,0.7761,0.776,0.7759,0.7758,0.7817,0.782,0.7823,0,0,0,0,0,0,0,0,0,0,0,0,0,0.7659,0.761,0.772,0.7721,0.7721,0.7774,0.7775,0.7775,0.7762,0.776,0.7758,0.7757,0.7816,0.782,0.7823,0.788,0,0,0.7835,0.7837,0,0,0,0,0,0,0,0,0.7656,0.7663,0.772,0.7721,0.7721,0.7759,0.7757,0.7811,0.7762,0.7746,0.7758,0.7756,0.78,0.7805,0.7819,0.7883,0.7885,0.7836,0.7838,0.784,0.7841,0,0,0,0,0,0,0,0.7652,0.766,0.7741,0.7721,0.7722,0.7719,0.7725,0.7767,0.7782,0.7748,0.7747,0.7753,0.78,0.7815,0.782,0.7886,0.7835,0.7839,0.7841,0.7843,0.7997,0.7999,0,0,0,0,0,0,0.7647,0.7657,0.774,0.7743,0.7684,0.7722,0.7728,0.7749,0.7781,0.7784,0.7754,0.7752,0.7809,0.7815,0.7822,0.7889,0.784,0.7843,0.7845,0.7995,0.7997,0.7999,0,0,0,0,0,0,0.7645,0.7655,0.7737,0.77,0.771,0.7726,0.7749,0.7751,0.7766,0.7786,0.7789,0.7767,0.7808,0.7817,0.7865,0.7891,0.7845,0.7848,0.7993,0.7996,0.7998,0.8023,0,0,0,0,0,0,0.7642,0.7654,0.7675,0.77,0.7712,0.7779,0.775,0.7753,0.7772,0.7769,0.7799,0.7802,0.7807,0.7859,0.7869,0.7895,0.7852,0.7991,0.7994,0.7997,0.802,0.8026,0.8032,0,0,0,0,0,0.7638,0.7682,0.7676,0.7686,0.7739,0.778,0.7787,0.7791,0.7774,0.7795,0.7808,0.7801,0.7886,0.7864,0.7875,0.7903,0.7989,0.7993,0.7997,0.8018,0.8025,0.8032,0,0,0,0,0,0,0.7661,0.7685,0.7679,0.7732,0.7754,0.7778,0.7805,0.7799,0.7828,0.7825,0.783,0.7837,0.7885,0.7899,0.7874,0.7958,0.7935,0.7942,0.7947,0.7955,0.796,0.7956,0.7855,0,0,0,0,0,0.7672,0.7702,0.7722,0.7767,0.7778,0.7789,0.7808,0.7809,0.7832,0.7842,0.7858,0.7882,0.7914,0.7935,0.7966,0.8022,0.8028,0.8047,0.8052,0.8057,0.8062,0.8091,0.81,0.8012,0.8012,0.8012,0,0,0.7695,0.7712,0.7731,0.7772,0.7789,0.782,0.7797,0.7833,0.7857,0.7848,0.7893,0.7906,0.7933,0.7985,0.8009,0.7998,0.8088,0.8062,0.8066,0.8068,0.8096,0.8105,0.8112,0.8015,0.8014,0.8014,0,0,0.7754,0.777,0.7808,0.7825,0.785,0.7857,0.7866,0.789,0.7898,0.7943,0.7937,0.7966,0.8021,0.804,0.8057,0.8121,0.8115,0.8131,0.8161,0.8189,0.8196,0.8202,0.8224,0.8231,0.8136,0.8136,0.8136,0,0.778,0.7827,0.7829,0.7864,0.7881,0.7872,0.7911,0.7928,0.7963,0.7975,0.7962,0.803,0.8048,0.8103,0.8118,0.8133,0.8143,0.8127,0.8195,0.8201,0.8207,0.8227,0.8235,0.8138,0.8138,0.8137,0.8137,0,0.7857,0.7889,0.7917,0.7948,0.797,0.8007,0.8014,0.8035,0.8034,0.8043,0.8089,0.811,0.8143,0.8157,0.8157,0.8212,0.8204,0.8193,0.817,0.8216,0.8236,0.8244,0.814,0.814,0.8139,0.8139,0,0,0.7932,0.7962,0.7973,0.7986,0.8012,0.8038,0.8074,0.8105,0.8123,0.8147,0.8177,0.8223,0.8212,0.8231,0.8234,0.8259,0.8306,0.8244,0.8245,0.8254,0.8366,0.8373,0.8382,0.8302,0.8304,0.8305,0.8363,0,0.7992,0.8054,0.8056,0.8113,0.8143,0.8134,0.8166,0.8186,0.8194,0.8221,0.8232,0.8263,0.8247,0.8258,0.8283,0.8295,0.8328,0.8291,0.833,0.8332,0.8323,0.8393,0.8401,0.8456,0.8371,0.8372,0.8373,0,0.8071,0.8094,0.8154,0.8174,0.8187,0.8215,0.8243,0.8269,0.8291,0.8295,0.8315,0.8314,0.8351,0.8327,0.8378,0.8352,0.8368,0.8377,0.8379,0.8382,0.8355,0.8397,0.8473,0.8481,0.8385,0.8384,0.8384,0,0.8118,0.8165,0.8206,0.8218,0.8243,0.8263,0.8275,0.8295,0.8313,0.8338,0.835,0.8379,0.8395,0.8419,0.8425,0.8407,0.8475,0.8452,0.848,0.848,0.8495,0.8493,0.8573,0.8506,0.8506,0.8506,0.8506,0,0.8184,0.8221,0.8227,0.8253,0.8293,0.8295,0.8335,0.8346,0.8364,0.8391,0.8386,0.8412,0.8419,0.8447,0.8452,0.8492,0.85,0.8505,0.8506,0.8505,0.8504,0.8515,0.8511,0.8508,0.8508,0.8507,0.8507,0,0.8244,0.825,0.8294,0.8313,0.8319,0.8348,0.8365,0.8389,0.8396,0.8431,0.8439,0.8452,0.8483,0.8491,0.853,0.8534,0.8581,0.8579,0.8573,0.8573,0.86,0.8597,0.8689,0.8701,0.8627,0.8628,0.8628,0,0.8285,0.8313,0.8334,0.8351,0.8363,0.8391,0.8409,0.8412,0.8431,0.8457,0.8478,0.8509,0.8533,0.8584,0.8597,0.8626,0.8624,0.8654,0.8629,0.8626,0.8623,0.8621,0.8623,0.8659,0.866,0.8661,0.8661,0,0.8358,0.8359,0.8384,0.841,0.843,0.8451,0.8471,0.8486,0.8492,0.8513,0.8544,0.8563,0.8601,0.8632,0.866,0.8673,0.8668,0.8669,0.8677,0.8676,0.8671,0.8673,0.8585,0.8667,0.8666,0.8666,0.8666,0.8665,0.8409,0.8432,0.845,0.8478,0.8493,0.8511,0.8534,0.8543,0.8569,0.8599,0.86,0.8633,0.8654,0.8692,0.8706,0.8732,0.8723,0.8735,0.8738,0.8741,0.8742,0.8667,0.8738,0.8738,0.8738,0.8738,0.8738,0,0.848,0.8491,0.8516,0.8543,0.8564,0.8556,0.8577,0.8596,0.8625,0.8644,0.8668,0.8703,0.8732,0.8746,0.8775,0.8793,0.8792,0.8801,0.8799,0.8802,0.8749,0.8739,0.8802,0.8802,0.8802,0.8802,0.8802,0.8801,0.8519,0.8558,0.8561,0.8606,0.8617,0.8649,0.8661,0.8678,0.8693,0.8732,0.8755,0.8763,0.878,0.881,0.8836,0.8839,0.885,0.886,0.8862,0.8812,0.8806,0.88,0.879,0.8862,0.8862,0.8912,0.8913,0.8913]},{"header":{"parameterUnit":"m.s-1","parameterCategory":1,"la1":30.2991,"la2":30.254,"lo1":-89.0895,"lo2":-89.0444,"dy":0.0017,"dx":0.0017,"nx":28,"ny":28,"refTime":"2025-04-09T03:00:00:Z","depth":0,"parameterNumber":3,"parameterNumberName":"V-component_of_WINDS"},"data":[0,0,0,0,0,0,0,0,0,0,0,0,0,0,0,0,0,0,0,0,0,0,0,0,0,0,0,0,0,0,0,0,0,0,0,0,0,0,0,0,0,0,0,0,0,0,0,0,0,0,0,0,0,0,0,0,0,0,2.5863,2.5863,0,2.5865,2.5865,2.5865,2.5847,2.5846,2.5846,2.5845,2.5842,2.5843,2.5843,0,0,0,0,0,0,0,0,0,0,0,0,0,2.5837,2.5838,2.5863,2.5863,2.5863,2.5865,2.5865,2.5865,2.5847,2.5846,2.5846,2.5845,2.5842,2.5843,2.5843,0,0,0,0,0,0,0,0,0,0,0,0,0,2.5845,2.5838,2.5863,2.5855,2.5854,2.5865,2.5865,2.5865,2.5847,2.5846,2.5845,2.5845,2.5842,2.5843,2.5843,2.5861,0,0,2.5845,2.5845,0,0,0,0,0,0,0,0,2.5844,2.5845,2.5856,2.5855,2.5854,2.5855,2.5854,2.5863,2.5847,2.5849,2.5845,2.5844,2.5847,2.5847,2.5849,2.5861,2.5861,2.5845,2.5845,2.5846,2.5846,0,0,0,0,0,0,0,2.5844,2.5845,2.5864,2.5856,2.5855,2.5848,2.5848,2.5856,2.5852,2.5849,2.5848,2.5848,2.5846,2.5848,2.5849,2.5861,2.5845,2.5846,2.5846,2.5846,2.5882,2.5883,0,0,0,0,0,0,2.5845,2.5845,2.5863,2.5864,2.5848,2.5849,2.5849,2.5855,2.5852,2.5851,2.5849,2.5848,2.5848,2.5848,2.5848,2.5866,2.5846,2.5846,2.5846,2.5881,2.5882,2.5883,0,0,0,0,0,0,2.5845,2.5847,2.5863,2.5854,2.5856,2.585,2.5857,2.5856,2.5858,2.5852,2.585,2.5852,2.5847,2.5848,2.5857,2.5866,2.5846,2.5847,2.5881,2.5882,2.5882,2.5903,0,0,0,0,0,0,2.5844,2.5847,2.5856,2.5854,2.5856,2.5875,2.5858,2.5856,2.5859,2.5857,2.5855,2.5853,2.5847,2.5856,2.5858,2.5866,2.5847,2.588,2.5881,2.5882,2.5901,2.5904,2.5907,0,0,0,0,0,2.5843,2.5862,2.5856,2.5859,2.5867,2.5875,2.5876,2.5869,2.586,2.5867,2.5863,2.5853,2.5864,2.5858,2.5859,2.5867,2.5879,2.5881,2.5882,2.59,2.5904,2.5907,0,0,0,0,0,0,2.5864,2.5862,2.5856,2.5875,2.5875,2.5872,2.5882,2.5874,2.5876,2.5874,2.5864,2.5863,2.5874,2.5871,2.5864,2.5882,2.587,2.5872,2.5883,2.5887,2.5889,2.5889,2.5848,0,0,0,0,0,2.5871,2.588,2.5876,2.5893,2.5893,2.5887,2.5891,2.5885,2.5885,2.5885,2.5881,2.588,2.5882,2.5884,2.5887,2.5901,2.5898,2.5907,2.5909,2.5912,2.5913,2.5916,2.5919,2.5887,2.5887,2.5887,0,0,2.5885,2.5885,2.5891,2.5897,2.5897,2.5903,2.5888,2.5896,2.59,2.5885,2.5894,2.5891,2.5888,2.5899,2.5903,2.5897,2.5921,2.5913,2.5915,2.5915,2.5918,2.5921,2.5924,2.5888,2.5888,2.5888,0,0,2.5914,2.5916,2.5928,2.5928,2.5928,2.5923,2.5925,2.5923,2.592,2.5929,2.5917,2.5919,2.5926,2.5923,2.5922,2.5945,2.5935,2.5946,2.596,2.5963,2.5966,2.5968,2.5973,2.5976,2.5947,2.5947,2.5947,0,2.5931,2.5943,2.5935,2.5943,2.5945,2.5932,2.5942,2.5941,2.5942,2.5941,2.5935,2.5939,2.5937,2.5945,2.595,2.5951,2.5951,2.5946,2.5966,2.5968,2.597,2.5975,2.5977,2.5948,2.5948,2.5948,2.5948,0,2.5962,2.5969,2.5979,2.5979,2.5981,2.5991,2.5982,2.5985,2.5977,2.5972,2.5978,2.5974,2.5974,2.5975,2.5969,2.5981,2.5977,2.5969,2.5956,2.5974,2.5979,2.5981,2.595,2.595,2.5949,2.5949,0,0,2.6006,2.6,2.6003,2.6001,2.5998,2.6003,2.6009,2.6009,2.601,2.6009,2.6013,2.6016,2.6007,2.6006,2.5998,2.6001,2.6015,2.5992,2.5991,2.5994,2.6025,2.6031,2.6033,2.6009,2.6009,2.6009,2.6024,0,2.6032,2.6045,2.6036,2.605,2.6054,2.6039,2.6044,2.6041,2.6036,2.6036,2.6029,2.6031,2.602,2.6019,2.6021,2.6013,2.6021,2.6012,2.6009,2.6009,2.6009,2.6036,2.6043,2.6057,2.6026,2.6026,2.6027,0,2.6065,2.6065,2.6079,2.6071,2.6072,2.6077,2.6074,2.6077,2.6071,2.6066,2.6063,2.6054,2.6056,2.6044,2.6045,2.6039,2.6037,2.6032,2.6033,2.6031,2.6019,2.6034,2.6062,2.6064,2.603,2.603,2.6029,0,2.6092,2.6096,2.6103,2.6102,2.6095,2.6098,2.6094,2.6088,2.6087,2.6084,2.6082,2.6079,2.6077,2.6073,2.6061,2.6054,2.6063,2.6051,2.6057,2.6057,2.6059,2.6059,2.6086,2.606,2.606,2.606,2.606,0,2.6121,2.6129,2.6115,2.612,2.6127,2.6115,2.6122,2.6117,2.6111,2.6112,2.6099,2.6099,2.6084,2.6082,2.6073,2.6073,2.6073,2.6067,2.6064,2.6068,2.6068,2.6066,2.6064,2.606,2.606,2.606,2.606,0,2.6153,2.6144,2.6151,2.6142,2.614,2.6145,2.6136,2.6138,2.613,2.6132,2.6131,2.6118,2.6115,2.6103,2.6096,2.609,2.6092,2.6088,2.6095,2.6093,2.6099,2.6098,2.6124,2.6126,2.61,2.61,2.61,0,2.6172,2.6177,2.6168,2.6168,2.6165,2.6166,2.6165,2.6152,2.6151,2.6143,2.6145,2.6141,2.6137,2.6131,2.612,2.6114,2.6108,2.6118,2.6107,2.6109,2.6106,2.6105,2.6104,2.612,2.612,2.6121,2.6121,0,2.6205,2.6199,2.6199,2.6195,2.6194,2.6191,2.6187,2.6187,2.6173,2.6171,2.6168,2.6165,2.6157,2.6152,2.6144,2.6137,2.6125,2.6124,2.6125,2.6128,2.6131,2.6127,2.6099,2.6124,2.6123,2.6123,2.6123,2.6123,2.6229,2.6232,2.6225,2.6224,2.6219,2.6215,2.6215,2.6207,2.6204,2.6198,2.619,2.6187,2.6177,2.6165,2.6158,2.6154,2.6148,2.615,2.615,2.615,2.6151,2.6132,2.6152,2.6152,2.6152,2.6152,2.6152,0,2.6259,2.6253,2.6252,2.6246,2.6244,2.6234,2.6228,2.6226,2.6224,2.6217,2.6212,2.6206,2.62,2.6188,2.618,2.6178,2.6172,2.6176,2.6176,2.6174,2.6158,2.6157,2.6181,2.6181,2.6181,2.6181,2.6181,2.6181,2.6274,2.6278,2.6271,2.6271,2.6264,2.6262,2.6259,2.6253,2.6247,2.6241,2.6236,2.6228,2.6217,2.6208,2.6201,2.6197,2.6194,2.6199,2.6193,2.6178,2.6175,2.6173,2.6172,2.6199,2.6199,2.621,2.621,2.621]}]]